GEFSSE_500_meanwind_252.txt.gz
Wind_Speed
4 4 5 5 5 5 5 5 5 5 5 6 5 5 5 5 5 6 6 6 5 6 6 6 5 5 4 4 4 4 5 5 4 5 5 5 6 5 5 5 5 5 5
4 4 4 5 6 6 6 6 6 6 6 6 6 7 6 6 6 6 6 7 6 6 6 6 6 5 5 5 5 6 7 6 6 5 5 6 6 7 6 6 6 6 6
4 4 5 5 6 6 6 6 6 6 7 7 7 7 7 7 6 6 7 7 7 6 6 6 6 6 6 5 5 6 6 6 6 6 6 6 7 7 7 7 7 7 7
5 5 5 6 6 6 6 7 7 7 7 7 7 7 7 6 6 6 6 6 6 6 6 6 6 6 6 5 5 6 6 7 7 7 6 7 7 8 8 8 9 8 9
5 5 6 6 6 6 6 7 7 8 7 7 7 7 6 6 6 6 6 6 6 6 6 6 7 7 6 6 6 6 7 6 6 7 7 7 7 7 8 9 9 9 9
6 6 6 6 7 7 7 7 7 7 8 8 7 7 6 6 6 6 6 7 7 7 7 7 8 8 7 7 6 6 7 7 7 7 8 8 9 8 9 10 10 10 10
6 6 7 7 7 7 6 6 7 7 7 8 8 7 7 6 6 6 6 7 7 8 8 8 8 8 9 8 8 8 8 7 8 8 8 9 9 10 10 11 11 12 11
6 6 6 7 7 6 6 7 7 6 7 7 7 7 7 7 7 6 6 7 8 8 8 9 9 9 9 9 9 9 10 10 9 9 9 10 10 11 11 12 12 13 12
5 5 6 6 6 6 7 7 7 6 6 6 7 7 7 7 7 6 7 7 8 8 8 9 9 10 9 10 10 10 11 10 11 10 11 10 10 11 11 11 12 12 13
5 5 5 6 6 6 6 6 6 6 6 6 7 7 7 7 7 7 7 8 8 9 9 9 9 9 9 10 9 10 10 11 11 11 10 10 11 11 11 12 12 12 12
5 5 5 5 5 6 6 6 6 7 7 7 7 7 7 7 8 8 7 8 8 8 8 9 10 9 10 10 9 9 9 10 10 10 10 10 11 12 12 12 12 12 12
5 5 5 5 5 5 6 6 6 6 6 7 8 8 8 8 8 8 8 8 8 9 9 9 10 9 10 10 10 10 10 10 9 9 9 10 10 10 11 12 11 12 12
5 6 6 5 5 4 4 4 5 5 5 6 7 7 8 7 7 7 8 9 9 9 9 9 10 9 10 10 10 11 11 11 10 9 9 10 10 10 11 11 11 11 12
5 5 5 4 4 3 3 4 4 5 5 5 6 6 6 7 7 7 8 9 9 9 9 9 9 9 10 10 10 10 10 11 11 10 10 10 11 11 11 11 11 11 11
5 4 4 3 3 2 2 2 3 4 5 5 5 5 6 6 6 7 8 8 8 8 9 9 9 9 10 10 10 10 10 10 10 10 9 9 10 10 10 9 10 11 12
5 4 4 3 3 2 2 2 2 3 3 5 5 5 6 6 6 7 7 7 7 7 8 9 9 9 10 9 9 10 10 10 10 10 10 10 10 10 10 10 11 12 13
5 5 4 3 3 2 2 2 3 3 3 4 5 5 5 6 6 5 5 5 5 6 7 8 8 8 8 9 9 9 9 9 10 9 9 10 10 10 11 11 11 12 12
6 5 5 4 4 3 3 3 3 3 3 3 3 4 4 4 4 5 5 6 6 5 5 5 6 6 7 8 8 8 8 8 8 9 9 10 10 11 11 11 11 12 12
6 6 5 5 4 4 3 3 3 3 3 3 3 3 4 4 3 4 5 5 5 5 5 5 6 6 7 8 8 8 8 8 8 9 9 9 10 10 11 11 11 11 12
6 6 5 5 5 4 3 3 3 3 3 2 2 3 3 4 3 3 4 4 5 5 6 5 6 6 6 7 8 8 8 8 8 9 9 9 9 9 10 11 11 11 11
6 6 6 5 5 4 4 4 4 3 3 3 3 3 4 4 4 4 4 4 5 5 6 6 6 6 6 7 7 8 8 8 9 9 9 9 9 9 9 9 9 10 10
6 6 6 6 5 5 5 5 4 4 4 4 4 5 5 5 5 5 5 5 5 6 6 7 6 6 7 7 7 7 8 8 8 8 9 9 9 9 9 10 10 10 11
7 7 7 7 6 5 6 6 6 5 5 5 5 5 6 6 6 6 6 6 5 6 6 7 7 7 7 7 7 7 7 8 8 9 9 9 10 10 10 11 11 11 11
8 7 7 7 6 6 6 6 6 6 6 6 6 5 6 6 6 6 6 6 6 6 6 7 7 7 8 8 9 9 9 10 10 10 10 10 11 11 11 11 11 12 13
9 8 8 8 8 8 7 7 6 7 7 7 7 6 6 6 7 7 7 7 7 8 8 8 8 8 9 9 10 10 10 10 10 10 10 11 12 12 12 12 12 13 13
9 9 8 8 8 8 8 8 8 8 8 8 8 8 8 8 8 8 8 8 9 9 9 10 10 9 10 10 11 11 11 11 11 11 11 12 12 12 13 13 13 13 13

GEFSSE_500_meanwind_258.txt.gz
Wind_Speed
5 5 5 5 6 6 6 6 6 7 6 6 6 6 6 6 6 6 6 7 7 8 7 6 5 5 5 5 6 5 5 5 5 5 5 5 6 6 5 5 5 5 5
5 5 6 5 6 6 6 7 7 8 8 8 7 8 7 7 7 7 7 7 8 7 7 7 7 6 5 5 6 6 6 6 6 6 6 6 7 7 6 6 6 6 6
5 6 6 6 5 6 6 7 7 8 8 8 8 8 8 8 8 8 8 8 8 7 7 7 7 6 6 6 6 7 7 7 7 7 7 7 7 7 7 8 8 8 8
5 6 7 7 7 7 7 7 8 8 8 9 9 9 9 8 8 8 8 9 8 8 7 7 7 7 7 6 6 7 7 6 7 8 8 8 8 8 9 9 9 9 9
6 6 7 7 7 8 8 9 9 9 8 9 9 8 8 8 8 8 8 8 8 8 8 8 8 7 7 7 6 6 7 7 8 8 8 8 9 9 10 10 10 10 10
6 6 6 7 7 7 8 9 9 9 9 9 9 8 9 9 8 8 8 8 8 8 8 8 8 8 7 7 7 7 8 8 7 8 8 8 9 10 10 10 10 10 10
5 5 6 7 7 8 8 9 9 9 9 9 9 9 9 10 9 9 9 9 9 8 8 8 9 9 8 8 8 8 8 8 8 8 8 9 10 10 10 11 11 11 11
4 5 6 6 7 8 9 9 9 9 9 9 9 9 9 10 10 10 9 9 9 9 8 9 9 9 9 9 9 9 9 9 9 10 9 9 10 11 11 12 11 11 11
4 5 5 6 7 7 8 9 9 10 10 9 9 9 10 10 10 10 10 10 9 10 10 10 9 9 9 10 10 10 10 10 10 10 10 10 11 11 12 12 11 12 12
5 5 6 6 6 7 7 8 9 9 9 9 9 9 10 10 11 10 10 10 10 10 11 10 10 10 10 10 10 10 10 10 10 11 11 11 11 11 11 11 11 12 13
5 5 5 6 6 6 6 7 8 8 9 9 9 9 9 10 11 11 10 10 10 11 10 10 9 10 10 10 10 10 10 10 11 11 11 11 11 11 11 11 11 12 13
5 5 5 6 6 6 6 6 6 7 8 8 9 9 9 10 11 11 11 11 11 11 11 10 9 10 10 10 10 10 10 10 11 11 11 11 11 11 11 11 11 11 12
5 4 4 5 5 5 5 5 6 7 7 7 8 8 8 9 10 10 10 11 11 11 11 10 10 10 10 10 10 10 10 11 11 11 11 11 11 11 11 11 11 11 12
5 4 4 5 5 5 4 5 5 6 6 6 7 7 8 8 8 9 10 11 11 11 10 10 10 10 10 10 10 10 10 11 11 11 11 11 11 11 11 11 11 12 12
5 4 4 4 4 4 4 4 5 5 6 6 7 7 8 8 8 8 9 10 11 10 10 10 10 10 9 9 10 10 10 10 10 10 10 11 10 10 11 11 11 11 11
4 4 4 4 4 4 4 4 4 5 5 6 6 6 7 8 8 8 8 9 9 10 10 10 10 10 10 10 10 9 9 9 10 9 9 9 9 10 10 10 11 11 12
4 4 4 4 4 4 3 3 4 4 5 5 5 6 6 7 7 7 8 8 8 9 9 10 9 9 9 9 9 9 9 9 9 9 9 10 10 10 11 10 10 11 11
5 5 4 4 4 4 4 4 4 3 4 4 5 5 5 5 5 6 6 7 7 8 8 9 9 8 9 9 9 9 9 9 9 10 10 10 11 11 11 10 10 10 11
5 5 5 4 4 4 5 5 4 3 3 4 4 5 5 5 5 5 6 6 6 7 7 8 8 9 9 9 9 9 10 10 10 10 10 10 10 10 10 10 10 10 10
6 6 5 5 5 5 5 5 5 4 4 4 5 5 6 5 5 6 6 6 6 7 8 8 8 9 9 9 9 10 10 10 10 10 10 10 10 10 10 10 10 10 10
7 7 6 6 6 6 6 5 5 5 5 5 5 5 6 6 6 6 6 6 6 7 7 8 8 9 9 9 9 10 10 11 11 10 11 10 11 11 11 11 11 11 11
8 8 7 7 7 7 7 7 6 6 6 5 6 7 6 7 7 7 7 6 7 7 8 8 8 9 10 10 10 10 10 11 11 11 11 11 11 11 12 12 12 12 12
9 8 8 8 8 8 8 8 8 8 7 7 7 7 8 8 8 8 8 8 8 8 8 8 8 9 9 10 10 10 10 10 11 11 12 12 12 12 12 13 13 13 13
9 9 8 8 8 8 8 8 8 8 8 8 8 8 8 9 10 10 10 9 9 9 9 9 9 9 9 10 11 11 11 11 11 12 12 12 13 13 13 13 14 14 14
9 9 9 9 9 9 8 8 8 8 8 9 9 9 9 9 10 11 10 10 10 11 10 10 10 10 11 11 11 11 11 12 12 12 13 12 13 13 14 14 15 15 15
10 10 10 10 9 9 9 9 9 9 9 10 10 10 10 10 10 10 11 11 11 11 11 11 11 12 12 12 12 12 12 13 13 13 14 14 14 14 14 15 15 16 16

GEFSSE_500_meanwind_264.txt.gz
Wind_Speed
8 8 8 8 9 9 9 9 9 9 8 7 7 7 7 7 7 7 7 8 7 7 7 6 5 5 5 5 5 5 4 4 4 4 4 4 4 3 3 3 3 3 3
7 8 8 9 9 9 9 9 9 9 9 9 8 8 8 8 9 8 8 9 8 8 8 8 7 7 6 7 6 6 6 5 5 5 5 5 5 5 4 4 4 5 4
8 8 9 9 10 9 9 9 9 10 10 10 9 9 9 9 10 9 9 9 9 8 8 8 7 7 7 7 7 7 7 7 6 7 6 6 6 6 5 5 5 6 6
8 9 9 9 10 10 9 9 9 9 9 10 9 9 10 10 10 9 9 9 8 8 8 8 7 7 8 8 8 8 8 8 7 7 7 7 7 7 6 7 7 6 6
8 8 8 9 9 10 10 10 10 9 9 10 10 10 10 10 9 9 9 9 8 9 9 8 8 8 8 8 8 9 9 9 8 8 8 8 7 7 8 8 8 7 7
7 8 8 8 9 9 9 10 10 10 10 10 10 10 10 10 10 10 9 9 9 9 8 8 8 8 9 8 8 8 8 9 9 9 8 8 8 8 8 8 9 8 8
7 8 8 8 9 9 9 9 10 11 11 11 10 10 10 9 9 10 10 10 9 9 8 8 8 9 9 9 9 9 8 8 9 9 9 9 9 9 9 9 10 9 9
7 7 8 8 8 8 8 9 9 10 10 10 10 10 10 10 10 10 10 10 9 9 9 9 8 9 9 10 9 9 9 9 10 10 10 9 9 9 10 10 10 10 10
7 7 7 8 8 8 8 8 9 9 10 10 10 10 10 10 10 10 10 10 10 9 9 9 10 10 10 10 10 9 9 9 9 10 10 10 10 10 10 10 11 11 10
7 7 7 7 7 7 8 8 8 8 9 10 10 10 10 10 10 11 10 10 10 10 11 11 11 11 11 11 11 11 11 10 10 10 11 11 11 11 11 11 11 11 11
7 7 7 6 6 6 6 7 7 7 8 9 10 10 10 10 10 10 10 11 11 12 12 11 12 11 11 11 11 11 11 10 11 11 11 11 11 11 11 12 12 12 11
7 7 6 6 6 6 6 6 6 7 7 8 9 9 9 10 10 10 10 11 12 12 12 12 12 12 12 12 11 11 10 9 10 10 11 11 11 11 12 12 12 12 12
6 7 7 7 7 6 6 6 6 7 7 7 8 8 9 9 9 9 9 10 11 11 11 11 11 12 12 12 11 11 10 10 10 10 11 11 12 12 12 12 11 11 12
6 7 7 6 6 5 5 5 6 6 7 7 8 9 9 9 9 9 9 10 10 10 10 10 10 10 11 11 11 10 11 10 10 11 11 11 12 11 11 11 11 12 12
7 6 6 6 5 5 6 6 6 6 6 6 7 7 7 7 8 8 9 10 10 10 10 9 9 10 11 11 11 11 10 10 10 10 10 10 11 11 10 11 11 12 12
7 7 7 6 6 6 6 7 7 6 6 5 5 6 6 6 7 8 8 9 9 9 9 9 9 10 10 11 11 11 10 9 9 9 9 9 9 10 11 10 10 11 11
7 7 7 6 6 6 7 7 7 7 6 6 6 7 7 7 7 8 8 8 8 8 8 9 9 9 9 9 9 9 10 10 10 9 9 9 10 10 10 10 10 11 11
7 7 7 7 6 7 7 7 7 7 7 8 8 8 8 8 8 8 8 8 8 8 8 9 9 9 9 9 8 8 9 10 10 9 9 10 10 10 10 10 11 11 11
8 8 8 8 8 8 8 7 7 7 8 8 8 9 8 8 8 8 8 8 8 8 8 8 9 9 9 9 9 9 9 9 9 9 10 10 10 11 11 11 11 11 11
9 9 9 9 9 9 9 8 8 8 9 8 9 8 8 8 8 8 8 8 8 8 9 9 9 9 10 9 9 10 10 9 9 9 10 11 11 12 12 12 12 12 12
9 9 9 10 10 10 9 9 9 8 9 9 9 9 8 8 8 8 8 8 8 9 9 9 10 10 10 10 10 10 10 10 10 11 11 11 12 12 12 12 12 12 12
9 10 10 10 10 10 10 9 9 9 9 9 9 8 8 8 8 8 9 9 9 9 10 10 10 10 10 11 11 11 11 11 12 12 12 12 12 12 12 12 13 13 13
10 10 11 11 11 10 11 10 9 9 10 10 9 9 8 9 9 9 9 10 10 10 11 12 12 12 11 12 12 12 12 13 13 13 13 13 13 13 13 13 14 14 14
10 11 11 11 11 11 11 10 10 10 11 11 10 10 10 10 10 10 10 10 11 11 12 12 13 13 12 12 13 13 14 14 15 14 14 14 14 14 14 14 14 15 15
11 11 12 12 12 11 11 11 11 11 11 11 11 11 11 10 11 11 11 11 11 11 12 13 13 13 13 13 13 14 15 15 15 15 15 15 15 14 15 15 15 15 15
12 12 12 12 12 12 11 11 11 12 12 12 12 12 12 12 12 12 13 13 12 12 12 12 13 13 14 14 14 15 15 15 15 15 15 15 15 15 15 15 16 15 15

GEFSSE_500_meanwind_270.txt.gz
Wind_Speed
5 6 6 7 7 7 7 7 8 8 8 8 7 7 7 7 8 8 7 7 7 7 7 7 7 6 6 6 6 6 6 5 5 5 5 4 4 4 4 3 3 3 3
6 6 6 7 7 8 8 8 8 9 9 9 9 8 8 8 8 9 9 8 8 8 8 8 8 8 7 7 7 7 7 6 6 6 6 5 5 5 5 4 4 4 4
6 6 7 7 8 8 9 9 9 9 9 10 10 9 9 9 9 9 9 9 9 9 9 8 9 9 8 8 8 8 8 7 6 6 6 6 6 5 5 5 5 5 5
6 7 8 8 8 8 9 9 9 9 9 10 10 10 9 10 11 10 10 10 9 10 10 9 8 8 9 9 9 9 9 8 7 7 7 6 6 6 6 6 6 6 5
5 6 6 7 7 8 8 9 10 10 10 10 10 10 10 10 11 11 11 10 10 10 10 11 10 9 9 10 10 9 9 9 9 8 8 7 7 7 7 7 7 7 7
5 5 5 6 6 7 7 8 9 9 10 10 10 10 10 10 10 10 10 10 10 10 9 10 10 9 9 9 9 9 9 10 9 9 9 8 8 8 8 7 7 8 8
4 5 5 6 6 7 7 8 8 9 10 9 9 10 10 10 10 10 10 10 10 10 10 10 10 9 9 9 9 9 8 9 10 10 10 9 9 9 9 8 8 8 8
4 5 5 6 6 7 7 7 8 8 9 9 9 10 10 10 10 10 10 10 10 10 10 10 11 10 10 9 9 9 9 9 9 10 10 10 10 10 9 9 9 9 9
5 5 5 6 6 6 7 7 7 7 8 9 9 10 10 10 10 10 10 10 9 10 10 10 10 10 10 10 10 10 10 9 9 10 10 10 11 11 10 10 11 11 10
5 5 4 5 6 5 6 6 6 6 7 8 8 9 9 10 10 11 11 10 10 10 10 10 10 10 10 10 10 10 11 10 10 9 10 10 11 11 11 11 12 11 11
4 4 4 5 5 5 5 6 6 6 6 7 7 8 9 9 10 11 11 11 11 11 10 10 11 11 11 11 10 10 10 11 10 10 10 10 11 11 11 11 11 12 12
4 4 4 4 4 4 4 5 5 6 6 7 6 7 8 8 9 10 11 11 11 11 11 11 11 11 11 11 11 11 11 11 11 11 11 11 11 11 11 11 11 11 11
3 3 3 3 3 3 3 4 4 4 5 5 5 6 6 7 8 8 10 11 11 11 11 10 10 10 11 11 11 11 10 11 10 10 10 10 10 11 11 10 11 11 12
3 3 3 3 3 3 2 2 3 3 4 4 5 5 6 6 7 8 8 9 10 10 10 10 10 10 10 10 10 10 10 10 10 10 10 11 11 11 11 11 11 11 12
3 3 3 3 2 3 3 3 3 4 4 5 5 5 5 6 7 8 8 8 9 9 9 10 9 9 10 9 10 10 10 10 10 10 10 10 10 10 10 10 11 11 12
3 3 4 4 4 3 3 3 4 4 5 5 5 5 6 6 7 8 8 8 8 8 9 9 10 10 9 9 9 10 10 10 10 10 10 10 10 10 10 10 10 11 11
3 4 4 4 5 4 4 4 5 5 5 5 5 6 6 6 6 7 7 8 8 8 8 9 9 10 10 9 10 10 10 10 10 10 10 10 11 11 11 10 11 12 11
4 4 5 5 5 6 5 5 5 4 4 5 5 5 5 6 6 6 7 7 7 8 8 9 9 10 10 9 9 9 10 10 10 10 10 10 10 10 10 10 11 11 11
5 5 5 6 6 6 6 6 5 5 5 5 6 6 6 6 6 6 6 7 7 8 8 9 9 9 10 10 9 9 10 10 10 10 10 10 10 11 11 11 11 11 11
5 6 6 6 6 6 6 6 6 6 6 6 6 6 5 5 6 6 7 8 8 8 8 9 9 9 10 10 10 10 10 11 11 10 11 10 10 11 11 12 12 12 12
5 6 6 6 6 6 6 6 6 6 6 6 6 6 6 6 6 7 8 8 8 9 9 9 10 10 10 10 11 11 11 11 12 12 12 12 12 12 12 12 12 12 12
6 6 6 7 7 7 7 6 6 6 6 7 6 6 7 7 7 8 8 8 9 9 9 10 10 10 10 10 10 11 11 12 12 12 12 12 13 13 13 13 13 13 13
6 6 7 7 7 8 8 7 7 7 7 7 7 7 7 8 8 8 8 8 9 9 9 10 10 10 11 11 11 11 11 12 13 13 13 13 14 14 14 14 14 14 14
7 7 8 8 8 8 8 8 8 8 8 8 8 8 8 8 9 9 9 9 10 10 10 11 11 11 11 12 12 12 12 13 13 14 14 14 15 15 15 15 15 15 15
8 8 8 8 9 8 8 9 9 9 9 9 9 9 9 9 9 9 10 10 11 11 12 12 12 12 12 13 13 13 13 14 14 15 15 15 16 16 16 16 16 15 15
8 8 8 9 9 9 9 9 10 10 10 10 10 10 10 10 10 10 10 11 12 12 12 12 12 13 13 14 14 14 14 14 15 15 16 16 16 16 17 17 17 16 16